Location: *
(55.5817°S, 142.4781°W)
Time: 07:36:07
(UTC+00:00)

Cosmos 1758 - Pass Details

Date: 29 April 2025
Orbit: 493 x 512 km, 82.5° (Epoch: 23 May)

Event Time Altitude Azimuth Distance (km) Brightness Sun altitude
Exits shadow 14:23:06 67° 326° (NW) 573 3.1 -21.1°
Maximum altitude 14:23:34 81° 258° (WSW) 536 3.0 -21.0°
Drops below altitude 10° 14:27:28 10° 170° (S) 1,768 6.1 -20.5°
Sets 14:29:37 0° 168° (SSE) 2,659 7.0 -20.2°
